This is the latest recevied weather packets stored in our database for station/object WD7CGF. If no packets are shown the sender has not sent any weather packets the latest 10 day(s).
| Time | Temp. | Humidity | Pressure | Rain* | Wind** | Luminosity | Snow |
|---|---|---|---|---|---|---|---|
| 1777705087 | 11.67° C | 77% | 1014.5 hPa | 0 mm | - | - | - |
| 1777704495 | 11.67° C | 76% | 1014.5 hPa | 0 mm | - | - | - |
| 1777703903 | 12.22° C | 75% | 1014.3 hPa | 0 mm | - | - | - |
| 1777703290 | 12.22° C | 75% | 1014.3 hPa | 0 mm | - | - | - |
| 1777702702 | 12.22° C | 75% | 1014.3 hPa | 0 mm | - | - | - |
| 1777702088 | 12.22° C | 73% | 1014.7 hPa | 0 mm | - | - | - |
| 1777701496 | 12.78° C | 72% | 1014.7 hPa | 0 mm | - | - | - |
| 1777700903 | 12.78° C | 71% | 1014.7 hPa | 0 mm | - | - | - |
| 1777700292 | 12.78° C | 70% | 1014.6 hPa | 0 mm | - | - | - |
| 1777699701 | 12.78° C | 71% | 1014.4 hPa | 0 mm | - | - | - |
| 1777699089 | 12.78° C | 70% | 1014.4 hPa | 0 mm | - | - | - |
| 1777698494 | 13.33° C | 69% | 1014.5 hPa | 0 mm | - | - | - |
| 1777697903 | 13.89° C | 67% | 1014.3 hPa | 0 mm | - | - | - |
| 1777697295 | 14.44° C | 64% | 1014.3 hPa | 0 mm | - | - | - |
| 1777696682 | 15° C | 62% | 1014.1 hPa | 0 mm | - | - | - |
| 1777696096 | 15.56° C | 60% | 1014 hPa | 0 mm | - | - | - |
| 1777695489 | 16.11° C | 59% | 1014 hPa | 0 mm | - | - | - |
| 1777694900 | 16.11° C | 58% | 1013.6 hPa | 0 mm | - | - | - |
| 1777694289 | 16.67° C | 57% | 1013.6 hPa | 0 mm | - | - | - |
| 1777693697 | 17.22° C | 55% | 1013.6 hPa | 0 mm | - | - | - |
| 1777693104 | 17.78° C | 53% | 1013.2 hPa | 0 mm | - | - | - |
| 1777692493 | 18.33° C | 51% | 1012.9 hPa | 0 mm | - | - | - |
| 1777691905 | 18.89° C | 48% | 1012.9 hPa | 0 mm | - | - | - |
| 1777691293 | 19.44° C | 47% | 1013.2 hPa | 0 mm | - | - | - |
| 1777690701 | 20° C | 46% | 1012.9 hPa | 0 mm | - | - | - |
* Rain since midnight (hover to see other rain measurements)
** Current wind speed in m/s (hover to see current wind gust speed)